星链-35864(STARLINK-35864)

导读

STARLINK-35864是美国太空探索技术公司SpaceX星链卫星星座的一员,于2025年12月14日发射升空,归属星链网络低轨星座部署计划。星链系统旨在为全球提供覆盖广泛的高速互联网接入服务,该卫星入轨后将进一步扩充星链星座的卫星规模,提升星座服务覆盖能力与网络稳定性。

Basic Information
目录编号:
67081
目录名称:
STARLINK-35864
国际标识:
2025-298G
轨道中心:
EARTH
卫星名称:
星链-35864
卫星全名:
星链-35864(STARLINK-35864)
卫星状态:
在轨 (已飞行181 天)
发射日期:
2025-12-14 UTC
国别 :
美国 (US)
星等 :
--
Orbit Information
数据来源 国际轨道数据 AOE轨道数据
星历时间 2026-06-12T13:49:39+0800
1天前
查看轨道信息
2026-06-09T00:00:00+0800
4天前
查看轨道信息
半长轴 6950.118km 6950.201km
偏心率 0.0004114 0.0003936
轨道倾角 70.000° 70.001°
近地点辐角 257.616° 261.056°
升交点赤经 135.933° 144.952°
平近点角 102.454° 254.754°
近地点 569.121km 569.328km
远地点 574.841km 574.8km
周期 96.105分钟 96.107分钟
每日圈数 14.983544 14.983276
Detailed Information
固有亮度:
5
最大亮度:
2.5
卫星平台:
Starlink V1.0
覆盖范围:
全球
运营商:
太空探索技术公司
运营商所在国:
美国
制造商(研发单位):
太空探索技术公司
制造商所在国:
美国
使用方式:
暂无
Satellite Introduction
Starlink 计划是 SpaceX 推出的全球卫星互联网项目,通过发射低轨道卫星,为全球尤其是偏远地区提供高速、低延迟的互联网服务。自 2019 年起,Starlink 已部署数千颗卫星,旨在缩小全球数字鸿沟,推动互联网普及。该项目还为军事、航空等行业提供通信支持,带来广泛经济效益。
2D Orbit Map
3D Orbit Map
Orbit Altitude Analysis Chart
Orbit Inclination Analysis Chart
Orbit Comprehensive Analysis Chart
View Comprehensive Chart